Cloud_Cover
100 100 100 100 100 100 100 100 100 100 19 45 5 5 5 5 5 5 12 5 4 0 0 0 0 0 0 0 0 0 0 0 0 0 1 13 89 100 47 97 100 100 100 100
100 100 100 100 100 100 100 100 100 100 36 27 5 6 13 8 5 5 35 5 5 0 0 1 0 0 0 0 0 0 0 0 0 0 0 0 3 76 100 100 100 100 100 100
100 100 100 100 100 100 100 100 100 100 96 92 10 22 12 6 5 23 5 5 3 0 0 5 0 0 0 0 0 0 0 0 0 0 0 0 0 0 44 100 100 100 100 100
100 100 100 100 100 100 100 100 100 99 97 91 6 6 100 18 5 7 5 5 0 5 5 5 0 0 0 0 0 0 0 0 0 0 0 4 14 1 0 7 100 85 100 100
99 57 100 99 99 98 100 100 86 87 100 60 67 7 53 42 6 16 6 4 1 5 5 5 0 0 0 0 0 0 0 0 0 0 0 4 98 100 16 6 89 100 93 100
77 44 63 44 88 100 88 99 82 100 86 90 18 44 67 12 20 6 5 3 1 5 5 5 0 0 0 0 0 0 0 0 0 0 0 5 5 68 100 98 47 100 100 100
86 86 68 71 30 38 38 70 7 92 100 98 95 79 92 6 8 5 49 5 5 5 5 4 0 0 0 0 0 0 0 0 0 3 2 0 2 5 100 100 100 94 100 100
96 100 47 88 5 9 41 72 82 100 16 100 99 83 100 7 5 84 6 5 5 5 5 0 0 0 0 0 0 0 0 0 0 5 5 5 4 22 100 100 100 100 100 100
65 31 33 30 30 73 54 66 8 39 45 84 44 88 100 5 37 10 3 5 5 5 1 0 0 0 0 1 4 0 2 3 0 5 0 5 5 5 99 100 100 100 100 100
85 10 10 5 88 100 83 100 58 40 20 26 7 100 9 65 76 2 5 5 5 5 1 3 5 5 5 5 5 5 5 5 5 5 5 2 2 2 15 100 100 100 100 100
100 65 88 5 99 100 100 95 62 64 30 5 29 58 5 47 3 5 5 5 5 5 4 5 5 5 5 5 5 5 5 5 5 5 5 4 4 4 4 74 100 100 100 100
100 71 73 68 70 99 24 72 95 65 37 17 5 5 98 2 5 5 5 5 7 10 5 5 5 5 5 5 5 5 5 5 5 5 5 0 0 0 0 5 5 18 100 100
100 94 34 43 79 98 73 100 54 5 5 29 5 9 12 5 5 5 8 5 5 5 5 5 8 5 5 5 5 5 5 29 5 5 0 0 0 0 5 4 3 5 6 95
100 62 57 5 32 92 95 98 65 41 38 20 36 57 9 55 98 16 25 6 5 5 5 5 5 61 5 5 5 5 5 5 5 2 0 0 1 0 2 5 5 5 5 5
100 62 68 5 46 82 99 41 100 100 96 5 18 98 98 100 97 58 32 28 5 5 5 7 30 33 22 5 5 5 5 5 5 2 2 5 5 5 5 4 5 5 5 5
88 55 74 6 48 100 27 88 100 100 80 22 62 100 100 100 100 72 72 8 5 5 5 5 5 9 99 12 23 5 5 5 0 5 5 5 5 5 5 5 5 5 5 5
97 92 97 22 100 74 55 100 100 100 100 100 81 100 99 100 100 71 87 87 5 5 5 5 60 92 100 17 5 5 5 5 5 5 5 5 5 5 5 5 5 5 5 5
100 100 100 52 65 38 100 100 100 100 100 100 100 100 100 100 99 35 100 75 5 5 5 5 81 84 40 5 5 5 5 5 5 5 5 5 5 5 5 5 5 5 5 5
100 100 100 100 100 100 100 100 100 100 96 100 100 100 100 100 95 38 62 5 5 5 5 10 88 75 5 5 5 5 5 5 5 5 5 5 43 5 5 5 5 5 5 8
100 100 100 100 100 100 100 100 100 100 100 100 100 100 100 100 22 86 36 5 5 5 5 98 53 25 5 5 5 5 5 5 5 7 61 5 5 7 67 70 88 49 13 29
100 100 100 100 100 100 100 100 100 100 100 100 100 100 100 76 5 30 17 5 5 5 73 83 19 5 5 5 5 5 5 5 5 5 5 5 5 76 97 84 21 76 34 5
100 100 100 100 100 100 100 100 100 100 100 100 100 100 88 5 5 17 5 5 5 5 75 19 5 5 5 5 5 5 5 5 5 44 5 5 5 61 42 40 50 23 32 68
100 100 100 100 100 100 100 100 100 100 100 100 100 54 5 5 5 5 4 0 0 0 3 5 3 2 5 5 5 5 5 17 34 5 5 5 5 31 55 25 71 80 99 100
100 100 100 100 100 100 100 100 100 100 100 94 5 85 5 5 5 4 0 0 0 0 0 5 5 5 5 2 5 5 5 5 5 5 5 5 12 15 61 65 64 100 100 100
100 100 100 100 100 100 100 100 100 100 100 6 10 5 6 23 3 0 0 0 4 5 5 5 5 5 5 5 5 5 5 5 12 5 5 5 7 34 26 16 82 100 100 100
100 100 100 100 100 97 100 100 100 64 11 23 5 64 18 5 0 1 0 3 5 5 6 84 5 5 5 5 5 5 5 5 53 5 8 12 65 7 13 65 44 52 100 100